Change the Weather History Date:

Thursday, January 17, 2013

  Actual Average Record
Temperature  
Mean Temperature 70 °F -  
Max Temperature 82 °F 72 °F 82 °F (1989)
Min Temperature 59 °F 48 °F 32 °F (2014)
Cooling Degree Days 6    
Growing Degree Days 20 (Base 50)    
Moisture  
Dew Point 63 °F    
Average Humidity 84    
Maximum Humidity 100    
Minimum Humidity 51    
Precipitation  
Precipitation 0.09 in - - ()
Sea Level Pressure  
Sea Level Pressure 30.05 in    
Wind  
Wind Speed 6 mph (SSW)    
Max Wind Speed 20 mph    
Max Gust Speed 29 mph    
Visibility 7 miles    
Events Fog , Rain    
Averages and records for this station are not official NWS values.
T = Trace of Precipitation, MM = Missing Value Source: NWS Daily Summary

Daily Weather History Graph

Daily Weather History Graph

Search for Another Location

Airport or City:

Trip Planner

Search our weather history database for the weather conditions in past years. The results will help you decide how hot, cold, wet, or windy it might be!

Date:

Astronomy

Jan. 17, 2013 Rise Set
Actual Time 7:14 AM EST 5:53 PM EST
Civil Twilight 6:49 AM EST 6:18 PM EST
Nautical Twilight 6:20 AM EST 6:46 PM EST
Astronomical Twilight 5:52 AM EST 7:14 PM EST
Moon 10:59 AM EST (1/17) No Moon Set
Length of Visible Light 11h 28m
Length of Day
10h 38m
Waxing Crescent, 37% of the Moon is Illuminated
Jan 17
Waxing Crescent
Jan 18
First Quarter
Jan 26
Full
Feb 3
Last Quarter
Feb 10
New

Hourly Weather History & Observations

Time (EST) Temp. Heat Index Dew Point Humidity Pressure Visibility Wind Dir Wind Speed Gust Speed Precip Events Conditions
12:15 AM 69.8 °F - 68.0 °F 94% 30.07 in 10.0 mi South 8.1 mph - N/A   Overcast
12:35 AM 69.8 °F - 68.0 °F 94% 30.07 in 10.0 mi South 8.1 mph - N/A Rain Rain
12:55 AM 68.0 °F - 66.2 °F 94% 30.06 in 5.0 mi SSW 4.6 mph - 0.07 in Rain Light Rain
1:15 AM 68.0 °F - 66.2 °F 94% 30.05 in 10.0 mi Calm Calm - N/A   Overcast
1:35 AM 68.0 °F - 66.2 °F 94% 30.05 in 10.0 mi Calm Calm - N/A   Overcast
1:55 AM 66.2 °F - 64.4 °F 94% 30.06 in 10.0 mi ESE 3.5 mph - N/A   Mostly Cloudy
2:15 AM 66.2 °F - 64.4 °F 94% 30.06 in 10.0 mi Calm Calm - N/A   Mostly Cloudy
2:35 AM 64.4 °F - 64.4 °F 100% 30.05 in 7.0 mi Calm Calm - N/A   Scattered Clouds
2:55 AM 64.4 °F - 64.4 °F 100% 30.05 in 1.0 mi Calm Calm - N/A   Mist
3:15 AM 64.4 °F - 64.4 °F 100% 30.04 in 5.0 mi ESE 3.5 mph - N/A   Clear
3:35 AM 62.6 °F - 62.6 °F 100% 30.05 in 4.0 mi ESE 4.6 mph - 0.02 in   Scattered Clouds
3:55 AM 64.4 °F - 64.4 °F 100% 30.05 in 7.0 mi Calm Calm - 0.02 in   Mostly Cloudy
4:15 AM 62.6 °F - 62.6 °F 100% 30.05 in 7.0 mi Calm Calm - N/A   Mostly Cloudy
4:35 AM 64.4 °F - 64.4 °F 100% 30.04 in 5.0 mi Calm Calm - N/A   Mostly Cloudy
4:55 AM 62.6 °F - 62.6 °F 100% 30.04 in 0.5 mi Calm Calm - N/A Fog Fog
5:15 AM 60.8 °F - 60.8 °F 100% 30.04 in 0.8 mi Calm Calm - N/A   Mist
5:35 AM 60.8 °F - 60.8 °F 100% 30.05 in 0.5 mi Calm Calm - N/A Fog Fog
5:55 AM 60.8 °F - 60.8 °F 100% 30.05 in 0.5 mi Calm Calm - N/A Fog Fog
6:15 AM 60.8 °F - 60.8 °F 100% 30.05 in 0.2 mi Calm Calm - N/A Fog Fog
6:35 AM 60.8 °F - 60.8 °F 100% 30.05 in 0.5 mi Calm Calm - N/A Fog Fog
6:55 AM 60.8 °F - 60.8 °F 100% 30.06 in 1.0 mi Calm Calm - N/A   Overcast
7:15 AM 60.8 °F - 60.8 °F 100% 30.06 in 0.5 mi Calm Calm - N/A Fog Fog
7:35 AM 60.8 °F - 60.8 °F 100% 30.07 in 0.2 mi Calm Calm - N/A Fog Fog
7:55 AM 60.8 °F - 60.8 °F 100% 30.07 in 0.5 mi Calm Calm - N/A Fog Fog
8:15 AM 60.8 °F - 60.8 °F 100% 30.07 in 0.2 mi Calm Calm - N/A Fog Fog
8:35 AM 60.8 °F - 60.8 °F 100% 30.08 in 1.0 mi Calm Calm - N/A   Mostly Cloudy
8:55 AM - - - N/A% - - North - - N/A   Unknown
9:15 AM 71.6 °F - 69.8 °F 94% 30.09 in 10.0 mi SSE 8.1 mph - N/A   Clear
9:35 AM 71.6 °F - 69.8 °F 94% 30.09 in 10.0 mi SSE 6.9 mph - N/A   Clear
9:55 AM 73.4 °F - 69.8 °F 88% 30.09 in 10.0 mi SE 8.1 mph - N/A   Clear
10:15 AM 75.2 °F - 69.8 °F 83% 30.09 in 10.0 mi SSE 6.9 mph - N/A   Clear
10:35 AM 75.2 °F - 69.8 °F 83% 30.08 in 10.0 mi SSE 8.1 mph - N/A   Scattered Clouds
10:55 AM 77.0 °F - 69.8 °F 78% 30.08 in 10.0 mi South 11.5 mph - N/A   Scattered Clouds
11:15 AM 77.0 °F - 69.8 °F 78% 30.06 in 10.0 mi SSE 12.7 mph - N/A   Scattered Clouds
11:35 AM 77.0 °F - 69.8 °F 78% 30.06 in 10.0 mi South 11.5 mph - N/A   Mostly Cloudy
11:55 AM 78.8 °F - 69.8 °F 74% 30.05 in 10.0 mi South 9.2 mph - N/A   Mostly Cloudy
12:15 PM 78.8 °F - 69.8 °F 74% 30.04 in 10.0 mi South 12.7 mph - N/A   Scattered Clouds
12:35 PM 80.6 °F 83.9 °F 69.8 °F 70% 30.02 in 10.0 mi South 13.8 mph 17.3 mph N/A   Scattered Clouds
12:55 PM 80.6 °F 83.2 °F 68.0 °F 65% 30.01 in 10.0 mi SSW 10.4 mph - N/A   Mostly Cloudy
1:15 PM 80.6 °F 83.2 °F 68.0 °F 65% 29.99 in 10.0 mi South 12.7 mph 16.1 mph N/A   Mostly Cloudy
1:35 PM 82.4 °F 85.4 °F 68.0 °F 62% 29.98 in 10.0 mi SSW 9.2 mph 17.3 mph N/A   Scattered Clouds
1:55 PM 82.4 °F 83.9 °F 64.4 °F 54% 29.97 in 10.0 mi SSW 12.7 mph 19.6 mph N/A   Mostly Cloudy
2:15 PM 82.4 °F 83.9 °F 64.4 °F 54% 29.97 in 10.0 mi SW 12.7 mph - N/A   Scattered Clouds
2:35 PM 82.4 °F 83.9 °F 64.4 °F 54% 29.96 in 10.0 mi SW 16.1 mph - N/A   Clear
2:55 PM 82.4 °F 83.4 °F 62.6 °F 51% 29.95 in 10.0 mi SSW 15.0 mph 18.4 mph N/A   Scattered Clouds
3:15 PM 82.4 °F 83.4 °F 62.6 °F 51% 29.96 in 10.0 mi WSW 19.6 mph 24.2 mph N/A   Scattered Clouds
3:35 PM 78.8 °F - 66.2 °F 65% 29.97 in 10.0 mi West 16.1 mph 26.5 mph N/A   Mostly Cloudy
3:55 PM 78.8 °F - 66.2 °F 65% 29.99 in 10.0 mi West 17.3 mph 25.3 mph N/A   Mostly Cloudy
4:15 PM 71.6 °F - 64.4 °F 78% 30.00 in 10.0 mi WNW 18.4 mph 28.8 mph N/A   Scattered Clouds
4:35 PM 69.8 °F - 62.6 °F 78% 30.01 in 10.0 mi West 13.8 mph 23.0 mph N/A   Mostly Cloudy
4:55 PM 68.0 °F - 60.8 °F 78% 30.03 in 10.0 mi WNW 18.4 mph 26.5 mph N/A   Overcast
5:55 PM 62.6 °F - 55.4 °F 77% 30.07 in 10.0 mi WNW 13.8 mph - N/A   Scattered Clouds
6:35 PM 60.8 °F - 55.4 °F 82% 30.08 in 10.0 mi WNW 13.8 mph - N/A   Clear
8:55 PM 60.8 °F - 51.8 °F 72% 30.11 in 10.0 mi WNW 15.0 mph 18.4 mph N/A   Overcast
9:15 PM 60.8 °F - 51.8 °F 72% 30.11 in 10.0 mi WNW 11.5 mph - N/A   Scattered Clouds
9:55 PM 59.0 °F - 50.0 °F 72% 30.12 in 10.0 mi West 8.1 mph - N/A   Scattered Clouds
10:15 PM 59.0 °F - 48.2 °F 67% 30.12 in 10.0 mi WNW 16.1 mph - N/A   Mostly Cloudy
10:35 PM 59.0 °F - 48.2 °F 67% 30.12 in 10.0 mi WNW 13.8 mph - N/A   Mostly Cloudy
10:55 PM 59.0 °F - 48.2 °F 67% 30.12 in 10.0 mi WNW 12.7 mph - N/A   Scattered Clouds